Garissa, Kenya

5:15 AM EAT on March 23, 2017 (GMT +0300)
Garissa

Weather History for HKGA - September, 2013

Change the Weather History Date:

Tuesday, September 3, 2013

  Actual Average Record
Temperature  
Mean Temperature 83 °F -  
Max Temperature 93 °F - - ()
Min Temperature 73 °F - - ()
Cooling Degree Days 18    
Growing Degree Days 33 (Base 50)    
Moisture  
Dew Point 63 °F    
Average Humidity 54    
Maximum Humidity 83    
Minimum Humidity 21    
Precipitation  
Precipitation 0.00 in - - ()
Sea Level Pressure  
Sea Level Pressure 29.95 in    
Wind  
Wind Speed 8 mph ()    
Max Wind Speed 23 mph    
Max Gust Speed -    
Visibility 8.5 miles    
Events      
T = Trace of Precipitation, MM = Missing Value Source: Averaged Metar Reports

Daily Weather History Graph

Daily Weather History Graph

Search for Another Location

Airport or City:

Trip Planner

Search our weather history database for the weather conditions in past years. The results will help you decide how hot, cold, wet, or windy it might be!

Date:

Astronomy

Sep. 03, 2013 Rise Set
Actual Time 6:17 AM EAT 6:23 PM EAT
Civil Twilight 5:56 AM EAT 6:44 PM EAT
Nautical Twilight 5:32 AM EAT 7:08 PM EAT
Astronomical Twilight 5:08 AM EAT 7:33 PM EAT
Moon 4:27 AM EAT (9/3) 4:48 PM EAT (9/3)
Length of Visible Light 12h 47m
Length of Day
12h 06m
Waning Crescent, 4% of the Moon is Illuminated
Sep 3
Waning Crescent
Sep 5
New
Sep 12
First Quarter
Sep 19
Full
Sep 27
Last Quarter

Hourly Weather History & Observations

Time (EAT) Temp. Heat Index Dew Point Humidity Pressure Visibility Wind Dir Wind Speed Gust Speed Precip Events Conditions
1:00 AM 75.2 °F - 68.0 °F 78% 29.98 in - SSE 5.8 mph - N/A   Clear
2:00 AM 75.2 °F - 68.0 °F 78% 29.95 in - South 6.9 mph - N/A   Clear
3:00 AM 75 °F - 68 °F 74% 29.95 in 19 mi South 13.8 mph - -   Partly Cloudy
4:00 AM 75.2 °F - 68.0 °F 78% 29.95 in - South 8.1 mph - N/A   Clear
5:00 AM 73.4 °F - 68.0 °F 83% 29.95 in - SSE 5.8 mph - N/A   Clear
7:00 AM 73.4 °F - 68.0 °F 83% 29.98 in 6.2 mi Calm Calm - N/A   Partly Cloudy
8:00 AM 75.2 °F - 68.0 °F 78% 30.01 in 6.2 mi South 6.9 mph - N/A   Mostly Cloudy
10:00 AM 80.6 °F 82.3 °F 64.4 °F 58% 30.04 in 6.2 mi South 11.5 mph - N/A   Mostly Cloudy
11:00 AM 84.2 °F 85.0 °F 62.6 °F 48% 30.04 in 6.2 mi SE 9.2 mph - N/A   Mostly Cloudy
1:00 PM 89.6 °F 88.9 °F 59.0 °F 36% 29.95 in 6.2 mi SSE 13.8 mph - N/A   Mostly Cloudy
2:00 PM 93.2 °F 91.9 °F 57.2 °F 30% 29.92 in 6.2 mi SW 13.8 mph - N/A   Mostly Cloudy
3:00 PM 92 °F - 57 °F 21% 29.87 in 25 mi SSE 9.2 mph - -   Partly Cloudy
4:00 PM 93.2 °F 91.9 °F 57.2 °F 30% 29.89 in 6.2 mi SSW 9.2 mph - N/A   Scattered Clouds
5:00 PM 91.4 °F 89.9 °F 57.2 °F 31% 29.89 in 6.2 mi South 11.5 mph - N/A   Scattered Clouds
7:00 PM 87.8 °F 87.1 °F 59.0 °F 38% 29.89 in 6.2 mi SE 11.5 mph - N/A   Partly Cloudy
8:00 PM 84.2 °F 83.8 °F 59.0 °F 42% 29.89 in - ESE 17.3 mph - N/A   Clear
9:00 PM 81 °F - 60 °F 38% 29.91 in 19 mi South 23.0 mph - -  
10:00 PM 80.6 °F 81.5 °F 60.8 °F 51% 29.95 in - SE 17.3 mph - N/A   Clear
11:00 PM 77.0 °F - 60.8 °F 57% 29.95 in - SE 13.8 mph - N/A   Clear